Year,Month,Day,Hour,Minute,Value (Times are PST for temperature in C)
2015,05,20,00,00,14.40
2015,05,20,00,01,14.40
2015,05,20,00,02,14.40
2015,05,20,00,03,14.40
2015,05,20,00,04,14.40
2015,05,20,00,05,14.40
2015,05,20,00,06,14.40
2015,05,20,00,07,14.30
2015,05,20,00,08,14.30
2015,05,20,00,09,14.30
2015,05,20,00,10,14.30
2015,05,20,00,11,14.30
2015,05,20,00,12,14.40
2015,05,20,00,13,14.40
2015,05,20,00,14,14.40
2015,05,20,00,15,14.50
2015,05,20,00,16,14.50
2015,05,20,00,17,14.50
2015,05,20,00,18,14.50
2015,05,20,00,19,14.50
2015,05,20,00,20,14.50
2015,05,20,00,21,14.50
2015,05,20,00,22,14.50
2015,05,20,00,23,14.50
2015,05,20,00,24,14.50
2015,05,20,00,25,14.50
2015,05,20,00,26,14.50
2015,05,20,00,27,14.50
2015,05,20,00,28,14.50
2015,05,20,00,29,14.50
2015,05,20,00,30,14.50
2015,05,20,00,31,14.50
2015,05,20,00,32,14.60
2015,05,20,00,33,14.60
2015,05,20,00,34,14.60
2015,05,20,00,35,14.60
2015,05,20,00,36,14.60
2015,05,20,00,37,14.60
2015,05,20,00,38,14.60
2015,05,20,00,39,14.50
2015,05,20,00,40,14.50
2015,05,20,00,41,14.50
2015,05,20,00,42,14.50
2015,05,20,00,43,14.50
2015,05,20,00,44,14.40
2015,05,20,00,45,14.40
2015,05,20,00,46,14.40
2015,05,20,00,47,14.40
2015,05,20,00,48,14.40
2015,05,20,00,49,14.30
2015,05,20,00,50,14.30
2015,05,20,00,51,14.30
2015,05,20,00,52,14.30
2015,05,20,00,53,14.30
2015,05,20,00,54,14.30
2015,05,20,00,55,14.30
2015,05,20,00,56,14.30
2015,05,20,00,57,14.20
2015,05,20,00,58,14.20
2015,05,20,00,59,14.20
2015,05,20,01,00,14.20
2015,05,20,01,01,14.20
2015,05,20,01,02,14.20
2015,05,20,01,03,14.20
2015,05,20,01,04,14.10
2015,05,20,01,05,14.10
2015,05,20,01,06,14.10
2015,05,20,01,07,14.10
2015,05,20,01,08,14.00
2015,05,20,01,09,14.00
2015,05,20,01,10,14.00
2015,05,20,01,11,14.00
2015,05,20,01,12,14.00
2015,05,20,01,13,13.90
2015,05,20,01,14,13.90
2015,05,20,01,15,13.90
2015,05,20,01,16,13.90
2015,05,20,01,17,13.90
2015,05,20,01,18,13.90
2015,05,20,01,19,13.90
2015,05,20,01,20,13.80
2015,05,20,01,21,13.80
2015,05,20,01,22,13.80
2015,05,20,01,23,13.80
2015,05,20,01,24,13.70
2015,05,20,01,25,13.70
2015,05,20,01,26,13.70
2015,05,20,01,27,13.70
2015,05,20,01,28,13.70
2015,05,20,01,29,13.60
2015,05,20,01,30,13.60
2015,05,20,01,31,13.60
2015,05,20,01,32,13.60
2015,05,20,01,33,13.50
2015,05,20,01,34,13.50
2015,05,20,01,35,13.50
2015,05,20,01,36,13.40
2015,05,20,01,37,13.40
2015,05,20,01,38,13.40
2015,05,20,01,39,13.40
2015,05,20,01,40,13.30
2015,05,20,01,41,13.30
2015,05,20,01,42,13.30
2015,05,20,01,43,13.30
2015,05,20,01,44,13.30
2015,05,20,01,49,13.20
2015,05,20,01,50,13.10
2015,05,20,01,51,13.10
2015,05,20,01,52,13.10
2015,05,20,01,53,13.10
2015,05,20,01,54,13.00
2015,05,20,01,55,13.00
2015,05,20,01,56,13.00
2015,05,20,01,57,13.00
2015,05,20,01,58,12.90
2015,05,20,01,59,12.90
2015,05,20,02,00,12.90
2015,05,20,02,01,12.90
2015,05,20,02,02,12.90
2015,05,20,02,03,12.90
2015,05,20,02,04,12.80
2015,05,20,02,05,12.80
2015,05,20,02,06,12.80
2015,05,20,02,07,12.80
2015,05,20,02,08,12.80
2015,05,20,02,09,12.80
2015,05,20,02,10,12.70
2015,05,20,02,11,12.70
2015,05,20,02,12,12.70
2015,05,20,02,13,12.70
2015,05,20,02,14,12.70
2015,05,20,02,15,12.60
2015,05,20,02,16,12.60
2015,05,20,02,17,12.60
2015,05,20,02,18,12.60
2015,05,20,02,19,12.60
2015,05,20,02,20,12.60
2015,05,20,02,21,12.50
2015,05,20,02,22,12.50
2015,05,20,02,23,12.50
2015,05,20,02,24,12.50
2015,05,20,02,25,12.40
2015,05,20,02,26,12.40
2015,05,20,02,27,12.40
2015,05,20,02,28,12.40
2015,05,20,02,29,12.40
2015,05,20,02,30,12.30
2015,05,20,02,31,12.30
2015,05,20,02,32,12.30
2015,05,20,02,33,12.30
2015,05,20,02,34,12.30
2015,05,20,02,35,12.30
2015,05,20,02,36,12.30
2015,05,20,02,37,12.30
2015,05,20,02,38,12.30
2015,05,20,02,39,12.20
2015,05,20,02,40,12.20
2015,05,20,02,41,12.20
2015,05,20,02,42,12.20
2015,05,20,02,43,12.20
2015,05,20,02,44,12.20
2015,05,20,02,45,12.20
2015,05,20,02,46,12.20
2015,05,20,02,47,12.20
2015,05,20,02,48,12.20
2015,05,20,02,49,12.20
2015,05,20,02,50,12.10
2015,05,20,02,51,12.10
2015,05,20,02,52,12.10
2015,05,20,02,53,12.10
2015,05,20,02,54,12.10
2015,05,20,02,55,12.10
2015,05,20,02,56,12.10
2015,05,20,02,57,12.10
2015,05,20,02,58,12.10
2015,05,20,02,59,12.10
2015,05,20,03,00,12.10
2015,05,20,03,01,12.10
2015,05,20,03,02,12.00
2015,05,20,03,03,12.00
2015,05,20,03,04,12.00
2015,05,20,03,05,12.00
2015,05,20,03,06,12.00
2015,05,20,03,07,12.00
2015,05,20,03,08,12.00
2015,05,20,03,09,12.00
2015,05,20,03,10,12.00
2015,05,20,03,11,12.00
2015,05,20,03,12,12.00
2015,05,20,03,13,11.90
2015,05,20,03,14,11.90
2015,05,20,03,15,11.90
2015,05,20,03,16,11.90
2015,05,20,03,17,11.90
2015,05,20,03,18,11.90
2015,05,20,03,19,11.90
2015,05,20,03,20,11.90
2015,05,20,03,21,11.90
2015,05,20,03,22,11.90
2015,05,20,03,23,11.90
2015,05,20,03,24,11.90
2015,05,20,03,25,11.90
2015,05,20,03,26,11.90
2015,05,20,03,27,11.90
2015,05,20,03,28,11.90
2015,05,20,03,29,11.90
2015,05,20,03,30,11.80
2015,05,20,03,31,11.80
2015,05,20,03,32,11.80
2015,05,20,03,33,11.80
2015,05,20,03,34,11.80
2015,05,20,03,35,11.80
2015,05,20,03,36,11.80
2015,05,20,03,37,11.80
2015,05,20,03,38,11.80
2015,05,20,03,39,11.80
2015,05,20,03,40,11.80
2015,05,20,03,41,11.80
2015,05,20,03,42,11.80
2015,05,20,03,43,11.80
2015,05,20,03,44,11.80
2015,05,20,03,45,11.80
2015,05,20,03,46,11.80
2015,05,20,03,47,11.80
2015,05,20,03,48,11.80
2015,05,20,03,49,11.80
2015,05,20,03,50,11.80
2015,05,20,03,51,11.80
2015,05,20,03,52,11.80
2015,05,20,03,53,11.80
2015,05,20,03,54,11.80
2015,05,20,03,55,11.80
2015,05,20,03,56,11.80
2015,05,20,03,57,11.80
2015,05,20,03,58,11.80
2015,05,20,03,59,11.80
2015,05,20,04,00,11.80
2015,05,20,04,01,11.80
2015,05,20,04,02,11.80
2015,05,20,04,03,11.80
2015,05,20,04,04,11.80
2015,05,20,04,05,11.80
2015,05,20,04,06,11.80
2015,05,20,04,07,11.90
2015,05,20,04,08,11.90
2015,05,20,04,09,11.90
2015,05,20,04,10,11.90
2015,05,20,04,11,11.90
2015,05,20,04,12,11.90
2015,05,20,04,13,11.90
2015,05,20,04,14,12.00
2015,05,20,04,15,12.00
2015,05,20,04,16,12.00
2015,05,20,04,17,12.00
2015,05,20,04,18,12.00
2015,05,20,04,19,12.10
2015,05,20,04,20,12.10
2015,05,20,04,21,12.10
2015,05,20,04,22,12.10
2015,05,20,04,23,12.10
2015,05,20,04,24,12.10
2015,05,20,04,25,12.10
2015,05,20,04,26,12.10
2015,05,20,04,27,12.10
2015,05,20,04,28,12.10
2015,05,20,04,29,12.10
2015,05,20,04,30,12.10
2015,05,20,04,31,12.10
2015,05,20,04,32,12.10
2015,05,20,04,33,12.10
2015,05,20,04,34,12.10
2015,05,20,04,35,12.10
2015,05,20,04,36,12.10
2015,05,20,04,37,12.10
2015,05,20,04,38,12.10
2015,05,20,04,39,12.10
2015,05,20,04,40,12.10
2015,05,20,04,41,12.10
2015,05,20,04,42,12.10
2015,05,20,04,43,12.10
2015,05,20,04,44,12.10
2015,05,20,04,45,12.10
2015,05,20,04,46,12.10
2015,05,20,04,47,12.10
2015,05,20,04,48,12.10
2015,05,20,04,49,12.10
2015,05,20,04,50,12.10
2015,05,20,04,51,12.10
2015,05,20,04,52,12.10
2015,05,20,04,53,12.10
2015,05,20,04,54,12.10
2015,05,20,04,55,12.10
2015,05,20,04,56,12.10
2015,05,20,04,57,12.10
2015,05,20,04,58,12.10
2015,05,20,04,59,12.10
2015,05,20,05,00,12.10
2015,05,20,05,01,12.10
2015,05,20,05,02,12.10
2015,05,20,05,03,12.10
2015,05,20,05,04,12.20
2015,05,20,05,05,12.20
2015,05,20,05,06,12.20
2015,05,20,05,07,12.30
2015,05,20,05,08,12.30
2015,05,20,05,09,12.30
2015,05,20,05,10,12.30
2015,05,20,05,11,12.30
2015,05,20,05,12,12.30
2015,05,20,05,13,12.30
2015,05,20,05,14,12.30
2015,05,20,05,15,12.30
2015,05,20,05,16,12.30
2015,05,20,05,17,12.30
2015,05,20,05,18,12.30
2015,05,20,05,19,12.30
2015,05,20,05,20,12.30
2015,05,20,05,21,12.30
2015,05,20,05,22,12.30
2015,05,20,05,23,12.20
2015,05,20,05,24,12.20
2015,05,20,05,25,12.20
2015,05,20,05,26,12.20
2015,05,20,05,27,12.20
2015,05,20,05,28,12.20
2015,05,20,05,29,12.20
2015,05,20,05,30,12.20
2015,05,20,05,31,12.20
2015,05,20,05,32,12.30
2015,05,20,05,33,12.30
2015,05,20,05,34,12.30
2015,05,20,05,35,12.30
2015,05,20,05,36,12.30
2015,05,20,05,37,12.30
2015,05,20,05,38,12.30
2015,05,20,05,39,12.30
2015,05,20,05,40,12.30
2015,05,20,05,41,12.30
2015,05,20,05,42,12.30
2015,05,20,05,43,12.30
2015,05,20,05,44,12.30
2015,05,20,05,45,12.30
2015,05,20,05,46,12.30
2015,05,20,05,47,12.30
2015,05,20,05,48,12.30
2015,05,20,05,49,12.40
2015,05,20,05,50,12.40
2015,05,20,05,51,12.40
2015,05,20,05,52,12.40
2015,05,20,05,53,12.40
2015,05,20,05,54,12.40
2015,05,20,05,55,12.40
2015,05,20,05,56,12.50
2015,05,20,05,57,12.50
2015,05,20,05,58,12.50
2015,05,20,05,59,12.50
2015,05,20,06,00,12.50
2015,05,20,06,01,12.50
2015,05,20,06,02,12.50
2015,05,20,06,03,12.50
2015,05,20,06,04,12.50
2015,05,20,06,05,12.50
2015,05,20,06,06,12.50
2015,05,20,06,07,12.50
2015,05,20,06,08,12.50
2015,05,20,06,09,12.50
2015,05,20,06,10,12.50
2015,05,20,06,11,12.50
2015,05,20,06,12,12.50
2015,05,20,06,13,12.60
2015,05,20,06,14,12.60
2015,05,20,06,15,12.60
2015,05,20,06,16,12.60
2015,05,20,06,17,12.50
2015,05,20,06,18,12.50
2015,05,20,06,19,12.50
2015,05,20,06,20,12.50
2015,05,20,06,21,12.50
2015,05,20,06,22,12.50
2015,05,20,06,23,12.50
2015,05,20,06,24,12.50
2015,05,20,06,25,12.60
2015,05,20,06,26,12.60
2015,05,20,06,27,12.60
2015,05,20,06,28,12.60
2015,05,20,06,29,12.60
2015,05,20,06,30,12.60
2015,05,20,06,31,12.60
2015,05,20,06,32,12.60
2015,05,20,06,33,12.60
2015,05,20,06,34,12.70
2015,05,20,06,35,12.70
2015,05,20,06,36,12.70
2015,05,20,06,37,12.70
2015,05,20,06,38,12.70
2015,05,20,06,39,12.70
2015,05,20,06,40,12.70
2015,05,20,06,41,12.70
2015,05,20,06,42,12.70
2015,05,20,06,43,12.70
2015,05,20,06,44,12.70
2015,05,20,06,45,12.70
2015,05,20,06,46,12.70
2015,05,20,06,47,12.70
2015,05,20,06,48,12.60
2015,05,20,06,49,12.60
2015,05,20,06,50,12.60
2015,05,20,06,51,12.70
2015,05,20,06,52,12.70
2015,05,20,06,53,12.70
2015,05,20,06,54,12.70
2015,05,20,06,55,12.70
2015,05,20,06,56,12.70
2015,05,20,06,57,12.70
2015,05,20,06,58,12.70
2015,05,20,06,59,12.70
2015,05,20,07,00,12.70
2015,05,20,07,01,12.70
2015,05,20,07,02,12.70
2015,05,20,07,03,12.80
2015,05,20,07,04,12.80
2015,05,20,07,05,12.80
2015,05,20,07,06,12.80
2015,05,20,07,07,12.80
2015,05,20,07,08,12.90
2015,05,20,07,09,12.90
2015,05,20,07,10,12.90
2015,05,20,07,11,12.90
2015,05,20,07,12,12.90
2015,05,20,07,13,13.00
2015,05,20,07,14,13.00
2015,05,20,07,15,13.00
2015,05,20,07,16,13.00
2015,05,20,07,17,13.00
2015,05,20,07,18,13.10
2015,05,20,07,19,13.10
2015,05,20,07,20,13.10
2015,05,20,07,21,13.10
2015,05,20,07,22,13.10
2015,05,20,07,23,13.20
2015,05,20,07,24,13.20
2015,05,20,07,25,13.20
2015,05,20,07,26,13.20
2015,05,20,07,27,13.20
2015,05,20,07,28,13.20
2015,05,20,07,29,13.20
2015,05,20,07,30,13.20
2015,05,20,07,31,13.20
2015,05,20,07,32,13.20
2015,05,20,07,33,13.20
2015,05,20,07,34,13.30
2015,05,20,07,35,13.30
2015,05,20,07,36,13.30
2015,05,20,07,37,13.30
2015,05,20,07,38,13.30
2015,05,20,07,39,13.30
2015,05,20,07,40,13.30
2015,05,20,07,41,13.30
2015,05,20,07,42,13.30
2015,05,20,07,43,13.30
2015,05,20,07,44,13.30
2015,05,20,07,45,13.30
2015,05,20,07,46,13.30
2015,05,20,07,47,13.30
2015,05,20,07,48,13.30
2015,05,20,07,49,13.30
2015,05,20,07,50,13.30
2015,05,20,07,51,13.30
2015,05,20,07,52,13.30
2015,05,20,07,53,13.30
2015,05,20,07,54,13.30
2015,05,20,07,55,13.30
2015,05,20,07,56,13.30
2015,05,20,07,57,13.30
2015,05,20,07,58,13.30
2015,05,20,07,59,13.30
2015,05,20,08,00,13.30
2015,05,20,08,01,13.30
2015,05,20,08,02,13.40
2015,05,20,08,03,13.40
2015,05,20,08,04,13.40
2015,05,20,08,05,13.40
2015,05,20,08,06,13.50
2015,05,20,08,07,13.50
2015,05,20,08,08,13.50
2015,05,20,08,09,13.50
2015,05,20,08,10,13.60
2015,05,20,08,11,13.60
2015,05,20,08,12,13.60
2015,05,20,08,13,13.60
2015,05,20,08,14,13.60
2015,05,20,08,15,13.60
2015,05,20,08,16,13.70
2015,05,20,08,17,13.70
2015,05,20,08,18,13.70
2015,05,20,08,19,13.70
2015,05,20,08,20,13.70
2015,05,20,08,21,13.70
2015,05,20,08,22,13.70
2015,05,20,08,23,13.70
2015,05,20,08,24,13.70
2015,05,20,08,25,13.70
2015,05,20,08,26,13.70
2015,05,20,08,27,13.70
2015,05,20,08,28,13.70
2015,05,20,08,29,13.70
2015,05,20,08,30,13.80
2015,05,20,08,31,13.80
2015,05,20,08,32,13.80
2015,05,20,08,33,13.80
2015,05,20,08,34,13.80
2015,05,20,08,35,13.80
2015,05,20,08,36,13.90
2015,05,20,08,37,13.90
2015,05,20,08,38,13.90
2015,05,20,08,39,14.00
2015,05,20,08,40,14.00
2015,05,20,08,41,14.00
2015,05,20,08,42,14.00
2015,05,20,08,43,14.00
2015,05,20,08,44,14.10
2015,05,20,08,45,14.10
2015,05,20,08,46,14.10
2015,05,20,08,47,14.10
2015,05,20,08,48,14.10
2015,05,20,08,49,14.20
2015,05,20,08,50,14.20
2015,05,20,08,51,14.20
2015,05,20,08,52,14.20
2015,05,20,08,53,14.20
2015,05,20,08,54,14.20
2015,05,20,08,55,14.20
2015,05,20,08,56,14.30
2015,05,20,08,57,14.30
2015,05,20,08,58,14.40
2015,05,20,08,59,14.40
2015,05,20,09,00,14.40
2015,05,20,09,01,14.40
2015,05,20,09,02,14.50
2015,05,20,09,03,14.50
2015,05,20,09,04,14.50
2015,05,20,09,05,14.50
2015,05,20,09,06,14.60
2015,05,20,09,07,14.60
2015,05,20,09,08,14.60
2015,05,20,09,09,14.70
2015,05,20,09,10,14.70
2015,05,20,09,11,14.70
2015,05,20,09,12,14.80
2015,05,20,09,13,14.80
2015,05,20,09,14,14.80
2015,05,20,09,15,14.80
2015,05,20,09,16,14.80
2015,05,20,09,17,14.80
2015,05,20,09,18,14.90
2015,05,20,09,19,15.00
2015,05,20,09,20,15.00
2015,05,20,09,21,15.00
2015,05,20,09,22,15.00
2015,05,20,09,23,15.00
2015,05,20,09,24,15.10
2015,05,20,09,25,15.20
2015,05,20,09,26,15.30
2015,05,20,09,27,15.40
2015,05,20,09,28,15.50
2015,05,20,09,29,15.60
2015,05,20,09,30,15.80
2015,05,20,09,31,15.90
2015,05,20,09,32,16.00
2015,05,20,09,33,16.10
2015,05,20,09,34,16.20
2015,05,20,09,35,16.20
2015,05,20,09,36,16.30
2015,05,20,09,37,16.30
2015,05,20,09,38,16.40
2015,05,20,09,39,16.50
2015,05,20,09,40,16.50
2015,05,20,09,41,16.60
2015,05,20,09,42,16.70
2015,05,20,09,43,16.70
2015,05,20,09,44,16.80
2015,05,20,09,45,16.80
2015,05,20,09,46,16.90
2015,05,20,09,47,16.90
2015,05,20,09,48,17.00
2015,05,20,09,49,17.00
2015,05,20,09,50,17.00
2015,05,20,09,51,17.00
2015,05,20,09,52,17.00
2015,05,20,09,53,17.00
2015,05,20,09,54,17.10
2015,05,20,09,55,17.10
2015,05,20,09,56,17.10
2015,05,20,09,57,17.10
2015,05,20,09,58,17.10
2015,05,20,09,59,17.10
2015,05,20,10,00,17.10
2015,05,20,10,01,17.10
2015,05,20,10,02,17.10
2015,05,20,10,03,17.10
2015,05,20,10,04,17.10
2015,05,20,10,05,17.20
2015,05,20,10,06,17.20
2015,05,20,10,07,17.20
2015,05,20,10,08,17.30
2015,05,20,10,09,17.40
2015,05,20,10,10,17.40
2015,05,20,10,11,17.40
2015,05,20,10,12,17.40
2015,05,20,10,13,17.40
2015,05,20,10,14,17.40
2015,05,20,10,15,17.40
2015,05,20,10,16,17.50
2015,05,20,10,17,17.50
2015,05,20,10,18,17.50
2015,05,20,10,19,17.50
2015,05,20,10,20,17.50
2015,05,20,10,21,17.50
2015,05,20,10,22,17.60
2015,05,20,10,23,17.60
2015,05,20,10,24,17.50
2015,05,20,10,25,17.50
2015,05,20,10,26,17.50
2015,05,20,10,27,17.50
2015,05,20,10,28,17.60
2015,05,20,10,29,17.60
2015,05,20,10,30,17.60
2015,05,20,10,31,17.60
2015,05,20,10,32,17.50
2015,05,20,10,33,17.40
2015,05,20,10,34,17.40
2015,05,20,10,35,17.40
2015,05,20,10,36,17.40
2015,05,20,10,37,17.40
2015,05,20,10,38,17.40
2015,05,20,10,39,17.40
2015,05,20,10,40,17.40
2015,05,20,10,41,17.50
2015,05,20,10,42,17.50
2015,05,20,10,43,17.60
2015,05,20,10,44,17.60
2015,05,20,10,45,17.70
2015,05,20,10,46,17.70
2015,05,20,10,47,17.70
2015,05,20,10,48,17.80
2015,05,20,10,49,17.80
2015,05,20,10,50,17.80
2015,05,20,10,51,17.80
2015,05,20,10,52,17.90
2015,05,20,10,53,17.90
2015,05,20,10,54,17.90
2015,05,20,10,55,17.90
2015,05,20,10,56,17.90
2015,05,20,10,57,18.00
2015,05,20,10,58,18.00
2015,05,20,10,59,18.10
2015,05,20,11,00,18.10
2015,05,20,11,01,18.20
2015,05,20,11,02,18.30
2015,05,20,11,03,18.30
2015,05,20,11,04,18.40
2015,05,20,11,05,18.50
2015,05,20,11,06,18.60
2015,05,20,11,07,18.70
2015,05,20,11,08,18.70
2015,05,20,11,09,18.70
2015,05,20,11,10,18.80
2015,05,20,11,11,18.80
2015,05,20,11,12,18.80
2015,05,20,11,13,18.90
2015,05,20,11,14,18.80
2015,05,20,11,15,18.90
2015,05,20,11,16,18.90
2015,05,20,11,17,18.90
2015,05,20,11,18,18.90
2015,05,20,11,19,18.90
2015,05,20,11,20,18.90
2015,05,20,11,21,18.90
2015,05,20,11,22,18.90
2015,05,20,11,23,18.90
2015,05,20,11,24,19.00
2015,05,20,11,25,19.10
2015,05,20,11,26,19.00
2015,05,20,11,27,19.00
2015,05,20,11,28,18.90
2015,05,20,11,29,19.00
2015,05,20,11,30,19.10
2015,05,20,11,31,19.10
2015,05,20,11,32,19.10
2015,05,20,11,33,19.10
2015,05,20,11,34,19.10
2015,05,20,11,35,19.10
2015,05,20,11,36,19.10
2015,05,20,11,37,19.10
2015,05,20,11,38,19.10
2015,05,20,11,39,19.20
2015,05,20,11,40,19.20
2015,05,20,11,41,19.30
2015,05,20,11,42,19.30
2015,05,20,11,43,19.30
2015,05,20,11,44,19.40
2015,05,20,11,45,19.50
2015,05,20,11,46,19.50
2015,05,20,11,47,19.60
2015,05,20,11,48,19.60
2015,05,20,11,49,19.60
2015,05,20,11,50,19.70
2015,05,20,11,51,19.80
2015,05,20,11,52,19.80
2015,05,20,11,53,19.90
2015,05,20,11,54,19.90
2015,05,20,11,55,19.90
2015,05,20,11,56,20.00
2015,05,20,11,57,20.10
2015,05,20,11,58,20.20
2015,05,20,11,59,20.20
2015,05,20,12,00,20.30
2015,05,20,12,01,20.30
2015,05,20,12,02,20.40
2015,05,20,12,03,20.50
2015,05,20,12,04,20.40
2015,05,20,12,05,20.50
2015,05,20,12,06,20.50
2015,05,20,12,07,20.60
2015,05,20,12,08,20.60
2015,05,20,12,09,20.70
2015,05,20,12,10,20.60
2015,05,20,12,11,20.60
2015,05,20,12,12,20.60
2015,05,20,12,13,20.60
2015,05,20,12,14,20.50
2015,05,20,12,15,20.50
2015,05,20,12,16,20.40
2015,05,20,12,17,20.40
2015,05,20,12,18,20.30
2015,05,20,12,19,20.30
2015,05,20,12,20,20.20
2015,05,20,12,21,20.20
2015,05,20,12,22,20.10
2015,05,20,12,23,20.00
2015,05,20,12,24,20.00
2015,05,20,12,25,20.00
2015,05,20,12,26,20.00
2015,05,20,12,27,20.10
2015,05,20,12,28,20.10
2015,05,20,12,29,20.20
2015,05,20,12,30,20.30
2015,05,20,12,31,20.30
2015,05,20,12,32,20.40
2015,05,20,12,33,20.40
2015,05,20,12,34,20.40
2015,05,20,12,35,20.60
2015,05,20,12,36,20.50
2015,05,20,12,37,20.60
2015,05,20,12,38,20.70
2015,05,20,12,39,20.70
2015,05,20,12,40,20.80
2015,05,20,12,41,21.00
2015,05,20,12,42,21.00
2015,05,20,12,43,21.10
2015,05,20,12,44,21.10
2015,05,20,12,45,21.10
2015,05,20,12,46,21.10
2015,05,20,12,47,21.20
2015,05,20,12,48,21.20
2015,05,20,12,49,21.20
2015,05,20,12,50,21.30
2015,05,20,12,51,21.30
2015,05,20,12,52,21.40
2015,05,20,12,53,21.40
2015,05,20,12,54,21.50
2015,05,20,12,55,21.50
2015,05,20,12,56,21.60
2015,05,20,12,57,21.60
2015,05,20,12,58,21.60
2015,05,20,12,59,21.60
2015,05,20,13,00,21.70
2015,05,20,13,01,21.70
2015,05,20,13,02,21.70
2015,05,20,13,03,21.70
2015,05,20,13,04,21.60
2015,05,20,13,05,21.70
2015,05,20,13,06,21.80
2015,05,20,13,07,21.80
2015,05,20,13,08,21.80
2015,05,20,13,09,21.80
2015,05,20,13,10,21.90
2015,05,20,13,11,22.00
2015,05,20,13,12,22.00
2015,05,20,13,13,22.10
2015,05,20,13,14,22.10
2015,05,20,13,15,22.00
2015,05,20,13,16,22.00
2015,05,20,13,17,22.00
2015,05,20,13,18,22.10
2015,05,20,13,19,22.10
2015,05,20,13,20,22.10
2015,05,20,13,21,22.00
2015,05,20,13,22,21.90
2015,05,20,13,23,22.00
2015,05,20,13,24,22.00
2015,05,20,13,25,22.00
2015,05,20,13,26,22.00
2015,05,20,13,27,22.10
2015,05,20,13,28,22.00
2015,05,20,13,29,22.00
2015,05,20,13,30,22.20
2015,05,20,13,31,22.20
2015,05,20,13,32,22.20
2015,05,20,13,33,22.20
2015,05,20,13,34,22.20
2015,05,20,13,35,22.30
2015,05,20,13,36,22.30
2015,05,20,13,37,22.30
2015,05,20,13,38,22.40
2015,05,20,13,39,22.40
2015,05,20,13,40,22.40
2015,05,20,13,41,22.30
2015,05,20,13,42,22.20
2015,05,20,13,43,22.20
2015,05,20,13,44,22.20
2015,05,20,13,45,22.20
2015,05,20,13,46,22.20
2015,05,20,13,47,22.30
2015,05,20,13,48,22.30
2015,05,20,13,49,22.30
2015,05,20,13,50,22.20
2015,05,20,13,51,22.30
2015,05,20,13,52,22.30
2015,05,20,13,53,22.20
2015,05,20,13,54,22.20
2015,05,20,13,55,22.20
2015,05,20,13,56,22.30
2015,05,20,13,57,22.30
2015,05,20,13,58,22.40
2015,05,20,13,59,22.40
2015,05,20,14,00,22.40
2015,05,20,14,01,22.50
2015,05,20,14,02,22.60
2015,05,20,14,03,22.60
2015,05,20,14,04,22.60
2015,05,20,14,05,22.60
2015,05,20,14,06,22.70
2015,05,20,14,07,22.70
2015,05,20,14,08,22.70
2015,05,20,14,09,22.80
2015,05,20,14,10,22.80
2015,05,20,14,11,22.80
2015,05,20,14,12,22.80
2015,05,20,14,13,22.80
2015,05,20,14,14,22.90
2015,05,20,14,15,22.90
2015,05,20,14,16,22.90
2015,05,20,14,17,22.90
2015,05,20,14,18,22.90
2015,05,20,14,19,22.90
2015,05,20,14,20,22.90
2015,05,20,14,21,22.90
2015,05,20,14,22,22.90
2015,05,20,14,23,22.90
2015,05,20,14,24,22.80
2015,05,20,14,25,22.80
2015,05,20,14,26,22.80
2015,05,20,14,27,22.70
2015,05,20,14,28,22.70
2015,05,20,14,29,22.60
2015,05,20,14,30,22.60
2015,05,20,14,31,22.60
2015,05,20,14,32,22.60
2015,05,20,14,33,22.60
2015,05,20,14,34,22.60
2015,05,20,14,35,22.60
2015,05,20,14,36,22.60
2015,05,20,14,37,22.60
2015,05,20,14,38,22.60
2015,05,20,14,39,22.70
2015,05,20,14,40,22.70
2015,05,20,14,41,22.80
2015,05,20,14,42,22.80
2015,05,20,14,43,22.80
2015,05,20,14,44,22.80
2015,05,20,14,45,22.80
2015,05,20,14,46,22.90
2015,05,20,14,47,22.90
2015,05,20,14,48,23.00
2015,05,20,14,49,23.10
2015,05,20,14,50,23.10
2015,05,20,14,51,23.20
2015,05,20,14,52,23.30
2015,05,20,14,53,23.40
2015,05,20,14,54,23.40
2015,05,20,14,55,23.40
2015,05,20,14,56,23.40
2015,05,20,14,57,23.40
2015,05,20,14,58,23.50
2015,05,20,14,59,23.50
2015,05,20,15,00,23.60
2015,05,20,15,01,23.70
2015,05,20,15,02,23.70
2015,05,20,15,03,23.70
2015,05,20,15,04,23.80
2015,05,20,15,05,23.80
2015,05,20,15,06,23.80
2015,05,20,15,07,23.90
2015,05,20,15,08,23.90
2015,05,20,15,09,23.90
2015,05,20,15,10,23.80
2015,05,20,15,11,23.80
2015,05,20,15,12,23.80
2015,05,20,15,13,23.80
2015,05,20,15,14,23.80
2015,05,20,15,15,23.80
2015,05,20,15,16,23.80
2015,05,20,15,17,23.80
2015,05,20,15,18,23.80
2015,05,20,15,19,23.80
2015,05,20,15,20,23.90
2015,05,20,15,21,23.90
2015,05,20,15,22,24.00
2015,05,20,15,23,24.00
2015,05,20,15,24,24.00
2015,05,20,15,25,24.10
2015,05,20,15,26,24.10
2015,05,20,15,27,24.20
2015,05,20,15,28,24.10
2015,05,20,15,29,24.10
2015,05,20,15,30,24.10
2015,05,20,15,31,24.20
2015,05,20,15,32,24.20
2015,05,20,15,33,24.20
2015,05,20,15,34,24.10
2015,05,20,15,35,24.00
2015,05,20,15,36,24.00
2015,05,20,15,37,24.00
2015,05,20,15,38,24.00
2015,05,20,15,39,24.00
2015,05,20,15,40,24.00
2015,05,20,15,41,24.00
2015,05,20,15,42,24.10
2015,05,20,15,43,24.10
2015,05,20,15,44,24.10
2015,05,20,15,45,24.10
2015,05,20,15,46,24.10
2015,05,20,15,47,24.20
2015,05,20,15,48,24.20
2015,05,20,15,49,24.30
2015,05,20,15,50,24.30
2015,05,20,15,51,24.40
2015,05,20,15,52,24.40
2015,05,20,15,53,24.50
2015,05,20,15,54,24.50
2015,05,20,15,55,24.60
2015,05,20,15,56,24.60
2015,05,20,15,57,24.70
2015,05,20,15,58,24.70
2015,05,20,15,59,24.70
2015,05,20,16,00,24.70
2015,05,20,16,01,24.80
2015,05,20,16,02,24.80
2015,05,20,16,03,24.80
2015,05,20,16,04,24.90
2015,05,20,16,05,24.90
2015,05,20,16,06,24.90
2015,05,20,16,07,24.90
2015,05,20,16,08,24.90
2015,05,20,16,09,25.00
2015,05,20,16,10,25.00
2015,05,20,16,11,25.10
2015,05,20,16,12,25.10
2015,05,20,16,13,25.10
2015,05,20,16,14,25.10
2015,05,20,16,15,25.10
2015,05,20,16,16,25.10
2015,05,20,16,17,25.10
2015,05,20,16,18,25.00
2015,05,20,16,19,25.00
2015,05,20,16,20,25.00
2015,05,20,16,21,25.00
2015,05,20,16,22,25.10
2015,05,20,16,23,25.10
2015,05,20,16,24,25.10
2015,05,20,16,25,25.10
2015,05,20,16,26,25.10
2015,05,20,16,27,25.10
2015,05,20,16,28,25.00
2015,05,20,16,29,24.90
2015,05,20,16,30,24.90
2015,05,20,16,31,24.90
2015,05,20,16,32,24.90
2015,05,20,16,33,25.00
2015,05,20,16,34,24.90
2015,05,20,16,35,24.80
2015,05,20,16,36,24.70
2015,05,20,16,37,24.60
2015,05,20,16,38,24.50
2015,05,20,16,39,24.30
2015,05,20,16,40,24.20
2015,05,20,16,41,24.10
2015,05,20,16,42,23.90
2015,05,20,16,43,23.70
2015,05,20,16,44,23.70
2015,05,20,16,45,23.60
2015,05,20,16,46,23.50
2015,05,20,16,47,23.40
2015,05,20,16,48,23.30
2015,05,20,16,49,23.10
2015,05,20,16,50,23.00
2015,05,20,16,51,22.90
2015,05,20,16,52,22.80
2015,05,20,16,53,22.80
2015,05,20,16,54,22.70
2015,05,20,16,55,22.70
2015,05,20,16,56,22.70
2015,05,20,16,57,22.70
2015,05,20,16,58,22.70
2015,05,20,16,59,22.60
2015,05,20,17,00,22.60
2015,05,20,17,01,22.60
2015,05,20,17,02,22.60
2015,05,20,17,03,22.50
2015,05,20,17,04,22.50
2015,05,20,17,05,22.50
2015,05,20,17,06,22.60
2015,05,20,17,07,22.60
2015,05,20,17,08,22.60
2015,05,20,17,09,22.50
2015,05,20,17,10,22.40
2015,05,20,17,11,22.40
2015,05,20,17,12,22.30
2015,05,20,17,13,22.20
2015,05,20,17,14,22.10
2015,05,20,17,15,22.00
2015,05,20,17,16,22.00
2015,05,20,17,17,22.00
2015,05,20,17,18,22.00
2015,05,20,17,19,22.00
2015,05,20,17,20,22.00
2015,05,20,17,21,21.90
2015,05,20,17,22,21.80
2015,05,20,17,23,21.80